This demonstration page uses our WeatherBlox Daily Observations layout. Learn more.

42.59453, -71.72452

Hourly Observations for October 12, 2018

Temp ( °F °C ) Dew Point ( °F °C ) Humidity (%) Winds ( mph kmh ) Pressure ( in mb ) Visibility ( mi km ) Precip ( " mm )
12:52 am 00:52 Cloudy 56 13.3 55 12.8 97 97 Calm 29.53 1000 10 16.09344 0 0
1:30 am 01:30 Cloudy 56 13.3 55 12.8 97 97 Calm 29.53 1000 10 16.09344 0 0
1:42 am 01:42 Cloudy 56 13.3 55 12.8 97 97 Calm 29.53 1000 9 14.484096 0 0
1:52 am 01:52 Cloudy 56 13.3 55 12.8 97 97 Calm 29.53 1000 8 12.874752 0 0
2:52 am 02:52 Cloudy 55 12.8 55 12.8 100 100 SE 5 7 29.53 1000 10 16.09344 0 0
3:04 am 03:04 Cloudy with Mist and Fog 55 12.8 55 12.8 100 100 Calm 29.53 1000 1.75 2.816352 0 0
3:19 am 03:19 Mostly Cloudy with Mist and Fog 55 12.8 55 12.8 100 100 N 7 11 29.5 999 0.75 1.207008 0 0
3:39 am 03:39 Cloudy with Mist and Fog 55 12.8 55 12.8 100 100 NNE 6 9 29.5 999 1.25 2.01168 0 0
3:49 am 03:49 Cloudy with Mist and Fog 55 13 55 13 100 100 Calm 29.53 1000 3 4.828032 0 0
3:52 am 03:52 Cloudy with Mist and Fog 55 12.8 55 12.8 100 100 Calm 32.45 1099 5 8.04672 0 0
4:10 am 04:10 Cloudy with Mist and Fog 55 12.8 55 12.8 100 100 N 3 6 29.53 1000 2.5 4.02336 0 0
4:41 am 04:41 Cloudy with Mist and Fog 55 12.8 55 12.8 100 100 Calm 29.53 1000 6 9.656064 0 0
4:52 am 04:52 Cloudy with Mist and Fog 55 12.8 54 12.2 96 96 NNW 3 6 29.53 1000 6 9.656064 0 0
5:16 am 05:16 Cloudy 55 12.8 55 12.8 100 100 Calm 29.56 1001 10 16.09344 0 0
5:28 am 05:28 Cloudy 55 12.8 54 12.2 96 96 Calm 29.56 1001 10 16.09344 0 0
5:42 am 05:42 Cloudy 55 12.8 55 12.8 100 100 NW 5 7 29.56 1001 10 16.09344 0 0
5:52 am 05:52 Cloudy 55 12.8 54 12.2 96 96 NW 5 7 29.53 1000 10 16.09344 0 0
6:52 am 06:52 Cloudy 57 13.9 54 12.2 90 90 NNW 6 9 29.53 1000 10 16.09344 0 0
7:52 am 07:52 Cloudy 57 13.9 53 11.7 87 87 NW 5 7 29.53 1000 10 16.09344 0 0
8:31 am 08:31 Cloudy 57 13.9 52 11.1 83 83 NNW 8 13 29.53 1000 10 16.09344 0 0
8:41 am 08:41 Mostly Cloudy 57 13.9 52 11.1 83 83 NW 9 15 29.53 1000 10 16.09344 0 0
8:52 am 08:52 Mostly Cloudy 57 13.9 52 11.1 83 83 NW 10 17 32.45 1099 10 16.09344 0 0
9:52 am 09:52 Mostly Cloudy 56 13.3 50 10 81 81 NNW 10 17 32.45 1099 10 16.09344 0 0
10:20 am 10:20 Cloudy 56 13.3 49 9.4 77 77 NNW 12 19 29.53 1000 10 16.09344 0 0
10:52 am 10:52 Cloudy 56 13.3 48 8.9 75 75 NNW 14 22 29.53 1000 10 16.09344 0 0
11:20 am 11:20 Cloudy 57 13.9 48 8.9 72 72 NNW 13 20 29.53 1000 10 16.09344 0 0
11:52 am 11:52 Cloudy 56 13.3 46 7.8 70 70 NW 21 33 29.53 1000 10 16.09344 0 0
12:18 pm 12:18 Mostly Cloudy 57 13.9 45 7.2 64 64 NNW 22 35 29.56 1001 10 16.09344 0 0
12:52 pm 12:52 Mostly Cloudy 60 15.6 44 6.7 56 56 NW 20 31 29.53 1000 10 16.09344 0 0
1:52 pm 13:52 Partly Cloudy 61 16.1 43 6.1 52 52 NW 21 33 29.53 1000 10 16.09344 0 0
2:52 pm 14:52 Sunny 61 16.1 41 5 48 48 NW 18 30 29.53 1000 10 16.09344 0 0
3:52 pm 15:52 Sunny 60 15.6 40 4.4 47 47 NW 16 26 29.56 1001 10 16.09344 0 0
4:52 pm 16:52 Sunny 59 15 38 3.3 46 46 WNW 13 20 29.56 1001 10 16.09344 0 0
5:52 pm 17:52 Sunny 56 13.3 39 3.9 53 53 WNW 9 15 29.59 1002 10 16.09344 0 0
6:52 pm 18:52 Clear 52 11.1 39 3.9 61 61 W 5 7 29.62 1003 10 16.09344 0 0
7:52 pm 19:52 Clear 49 9.4 39 3.9 69 69 NW 6 9 29.65 1004 10 16.09344 0 0
8:52 pm 20:52 Clear 48 8.9 39 3.9 71 71 WNW 5 7 29.68 1005 10 16.09344 0 0
9:52 pm 21:52 Clear 46 7.8 39 3.9 77 77 Calm 29.71 1006 10 16.09344 0 0
10:52 pm 22:52 Clear 43 6.1 40 4.4 89 89 Calm 29.74 1007 10 16.09344 0 0
11:52 pm 23:52 Mostly Cloudy 46 7.8 40 4.4 79 79 Calm 29.74 1007 10 16.09344 0 0

Powered by AerisWeather